Dewpoint
36 38 40 42 42 45 45 45 45 48 49 50 50 50 50 49 52 51 49 50 51 52 53 54 54 55 57
34 36 39 41 40 39 42 44 44 46 48 50 50 50 50 50 51 50 50 52 51 51 51 52 53 54 55
33 35 38 39 40 41 41 42 44 45 47 48 49 50 50 50 50 50 50 49 48 48 49 49 50 52 54
33 33 34 37 39 39 37 40 41 43 45 45 46 47 48 48 49 48 47 47 47 47 49 50 51 50 53
33 32 32 35 35 36 36 37 38 41 42 43 44 45 44 46 46 46 46 46 47 47 48 49 50 51 52
33 32 32 33 35 35 35 35 33 39 39 39 44 43 44 44 44 46 46 46 46 47 48 49 51 52 52
33 33 32 33 34 34 34 34 34 37 38 36 38 38 41 42 45 45 46 46 47 47 48 50 50 51 52
34 34 35 35 35 35 35 35 35 36 38 36 39 37 39 40 43 44 45 46 46 46 49 49 49 49 50
36 36 37 38 38 35 32 30 28 30 35 36 36 37 38 38 40 43 44 46 47 47 47 48 48 48 49
34 36 37 36 37 35 32 29 27 28 33 34 33 36 36 39 37 39 40 43 44 44 45 46 47 48 48
32 32 31 32 32 32 32 32 29 30 32 31 32 34 35 36 37 38 40 40 40 40 41 42 44 46 47
32 31 31 31 31 32 32 33 33 31 32 34 32 33 35 35 35 34 36 37 37 37 38 39 41 44 47
30 30 30 31 30 28 30 30 30 31 33 33 34 35 36 35 35 34 34 34 33 35 37 37 38 39 42
29 29 27 25 27 26 25 24 26 29 30 32 34 35 35 36 36 36 35 35 33 33 35 35 36 38 39
27 26 27 27 27 25 26 23 27 26 27 28 30 34 35 35 34 35 35 34 34 34 34 33 33 35 36
27 27 27 25 27 22 25 25 26 27 28 26 23 30 31 33 36 35 34 35 33 34 33 32 33 33 35
27 26 25 27 26 26 27 28 28 27 30 24 24 28 27 27 28 37 34 33 32 32 32 32 32 33 35
Lifted_Index
16 15 14 12 12 12 12 11 11 10 10 10 10 11 12 12 11 11 11 10 10 10 10 9 9 8 7
15 15 14 13 12 12 11 11 10 10 9 9 10 10 11 11 11 11 10 10 10 10 10 10 9 9 8
14 14 13 13 12 11 11 11 10 10 9 9 9 9 9 10 10 11 11 11 11 10 10 10 10 9 9
12 12 12 12 11 11 11 10 10 10 9 9 9 9 9 9 10 10 11 11 11 10 10 10 9 9 8
10 10 11 11 11 11 11 11 10 10 10 9 9 9 9 9 10 10 11 11 11 10 10 9 8 7 6
8 9 9 10 10 11 11 11 11 10 10 10 10 10 10 10 10 10 10 10 10 10 9 8 7 5 5
6 6 7 8 9 10 10 11 11 11 10 10 10 10 10 10 10 10 10 10 10 9 9 7 6 5 4
4 4 5 6 7 8 9 10 11 11 11 10 10 11 11 11 11 11 10 10 9 8 8 7 5 4 4
2 3 3 4 4 6 8 9 11 11 11 10 10 10 10 10 10 10 10 9 8 8 7 6 5 4 4
2 2 2 2 2 4 5 8 10 10 10 11 11 11 10 10 10 10 10 9 8 8 7 6 5 5 4
1 1 1 2 2 2 4 6 8 9 10 11 11 11 11 10 10 9 9 10 9 8 7 7 6 5 5
1 1 1 1 1 2 3 5 7 9 10 11 11 11 11 10 10 9 9 10 10 9 8 7 6 6 6
1 1 1 1 2 2 3 5 7 9 10 10 11 11 11 11 10 9 9 10 10 9 8 8 7 6 6
1 1 1 2 2 3 4 5 6 8 9 9 10 11 11 11 10 10 9 10 9 9 9 8 8 7 7
2 2 2 3 3 4 4 5 6 7 8 8 10 11 11 11 10 10 9 10 10 9 9 9 8 8 8
3 3 4 4 5 5 5 6 6 6 7 8 9 10 11 11 10 10 9 9 9 9 9 9 9 9 9
4 4 4 5 5 6 6 6 6 6 7 7 9 10 11 10 10 9 9 9 9 9 9 9 9 9 9